THOR ABLESTAR DEB, 3810

Orbit data source: Space-Track

THOR ABLESTAR DEB, 3810 is space debris in LEO originally from a launch on Fri, 13 Aug 1965 UTC launched from the Air Force Western Test Range (AFWTR). Debris objects in space refer to the collection of defunct objects orbiting the Earth. Examples of debris include non-operational satellites, rocket bodies, and fragments generated from explosions, collisions, or faulty payload assembly.

Loading next visibility...
Identifier
3810, 1965-065P
Orbit
LEO
Country
Flag of USUS
Related business
Manufacturer
Unknown
Mission
Spacecraft
Bus & Motor
Unknown
Mass
Unknown
Launch date (UTC)
1965-08-13 (61 years ago)
Launch vehicle
Unknown
Launch site
Air Force Western Test Range (AFWTR)
Object type
Payload
Rocket body
Debris
Shape & HBR
Unknown shape, 0.1 m
Radar Cross Section
Small (<0.1 m²)

Expand to show TLE details & history
Last TLE update: 8 hours ago

TLE from 8 hours ago
0 THOR ABLESTAR DEB
1  3810U 65065P   26061.66846086  .00000679  00000-0  10083-2 0  9999
2  3810  89.9908 216.0714 0059745 235.3250 245.0627 13.52096234244481
Epoch: 2026-03-02T16:02Z
TLE epoch observation values (Epoch: 2026-03-02T16:02:35.018Z)
Latitude
60.3204°
Longitude
-5.04914°
Altitude
1,093.881 km
Speed
7.302 km/s
True Right ascension
02h 24m 13s
True Declination
60° 10' 44"
Sunlit
Object was in daylight at epoch
Visualization orbit readout
Latitude
Unknown
Longitude
Unknown
Altitude
Unknown
Speed
Unknown
Apparent Right ascension
Unknown
Apparent Declination
Unknown
Sunlit
N/A
Visualization observer readout
Local Sidereal Time
03:46:23
Azimuth
Unknown
Elevation
Unknown
Doppler factor
Unknown
Orbital elements
Apogee altitude
1,106.051 km
Perigee altitude
1,017.154 km
Semi-major axis
7,439.74 km
Eccentricity
0.00597
Inclination
89.9908°
RAAN
216.0714°
Arg. of periapsis
235.325°
True anomaly
244.44386°
Mean anomaly
245.0627°
Eccentric anomaly
244.75308°
Mean motion
3.38226 °/min
Orbital period
106.44 mins
BSTAR
0.0010083
Loading maneuver chart data...
Computing Atmospheric mass density...
Loading historical data...
Loading historical data...
Loading historical data...
Loading historical data...
Loading historical data...
Loading historical data...
Loading historical data...

Documentation

Showing up to 5 results
|